Time,TemperatureF,DewpointF,PressureIn,WindDirection,WindDirectionDegrees,WindSpeedMPH,WindSpeedGustMPH,Humidity,HourlyPrecipIn,Conditions,Clouds,dailyrainin,SoftwareType,DateUTC
2013-02-18 09:32:00,59.0,-99.9,30.27,SSE,164,23.0,25.0,-999,-99.99,,,-99.99,,2013-02-18 15:32:00,
2013-02-18 09:42:00,59.0,-99.9,30.28,SSE,168,20.0,22.0,-999,-99.99,,,-99.99,,2013-02-18 15:42:00,
2013-02-18 09:53:00,59.0,-99.9,30.28,South,169,21.0,26.0,-999,-99.99,,,-99.99,,2013-02-18 15:53:00,
2013-02-18 10:03:00,59.0,-99.9,30.28,SSE,166,23.0,27.0,-999,-99.99,,,-99.99,,2013-02-18 16:03:00,
2013-02-18 10:12:00,59.0,-99.9,30.27,SSE,163,23.0,27.0,-999,-99.99,,,-99.99,,2013-02-18 16:12:00,
2013-02-18 10:23:00,59.0,-99.9,30.27,SSE,163,22.0,25.0,-999,-99.99,,,-99.99,,2013-02-18 16:23:00,
2013-02-18 10:33:00,59.0,-99.9,30.28,SSE,162,23.0,25.0,-999,-99.99,,,-99.99,,2013-02-18 16:33:00,
2013-02-18 10:43:00,59.0,-99.9,30.28,SSE,161,23.0,26.0,-999,-99.99,,,-99.99,,2013-02-18 16:43:00,
2013-02-18 10:53:00,59.0,-99.9,30.28,SSE,168,22.0,24.0,-999,-99.99,,,-99.99,,2013-02-18 16:53:00,
2013-02-18 11:04:00,59.0,-99.9,30.28,SSE,166,23.0,26.0,-999,-99.99,,,-99.99,,2013-02-18 17:04:00,
2013-02-18 11:13:00,60.0,-99.9,30.29,SSE,163,22.0,25.0,-999,-99.99,,,-99.99,,2013-02-18 17:13:00,
2013-02-18 11:23:00,59.0,-99.9,30.28,North,-999,-999.0,-999.0,-999,-99.99,,,-99.99,,2013-02-18 17:23:00,
2013-02-18 11:33:00,60.0,-99.9,30.28,North,-999,-999.0,-999.0,-999,-99.99,,,-99.99,,2013-02-18 17:33:00,
2013-02-18 11:43:00,59.0,-99.9,30.28,SSE,160,23.0,26.0,-999,-99.99,,,-99.99,,2013-02-18 17:43:00,
2013-02-18 11:53:00,60.0,-99.9,30.27,SSE,157,23.0,25.0,-999,-99.99,,,-99.99,,2013-02-18 17:53:00,
2013-02-18 12:03:00,60.0,-99.9,30.27,SSE,159,23.0,26.0,-999,-99.99,,,-99.99,,2013-02-18 18:03:00,
2013-02-18 12:13:00,60.0,-99.9,30.26,SSE,157,26.0,28.0,-999,-99.99,,,-99.99,,2013-02-18 18:13:00,
2013-02-18 12:23:00,60.0,-99.9,30.25,SSE,158,25.0,28.0,-999,-99.99,,,-99.99,,2013-02-18 18:23:00,
2013-02-18 12:33:00,60.0,-99.9,30.25,SSE,149,24.0,27.0,-999,-99.99,,,-99.99,,2013-02-18 18:33:00,
2013-02-18 12:43:00,60.0,-99.9,30.24,North,-999,-999.0,-999.0,-999,-99.99,,,-99.99,,2013-02-18 18:43:00,
2013-02-18 12:53:00,60.0,-99.9,30.23,SE,146,28.0,30.0,-999,-99.99,,,-99.99,,2013-02-18 18:53:00,
2013-02-18 13:03:00,60.0,-99.9,30.23,SSE,149,25.0,28.0,-999,-99.99,,,-99.99,,2013-02-18 19:03:00,
2013-02-18 13:13:00,60.0,-99.9,30.22,SSE,151,27.0,30.0,-999,-99.99,,,-99.99,,2013-02-18 19:13:00,
2013-02-18 13:23:00,60.0,-99.9,30.21,SSE,148,28.0,30.0,-999,-99.99,,,-99.99,,2013-02-18 19:23:00,
2013-02-18 13:34:00,60.0,-99.9,30.20,SSE,152,30.0,33.0,-999,-99.99,,,-99.99,,2013-02-18 19:34:00,
2013-02-18 13:43:00,60.0,-99.9,30.20,SSE,151,29.0,30.0,-999,-99.99,,,-99.99,,2013-02-18 19:43:00,
2013-02-18 13:53:00,60.0,-99.9,30.20,SSE,151,29.0,32.0,-999,-99.99,,,-99.99,,2013-02-18 19:53:00,
2013-02-18 14:03:00,60.0,-99.9,30.19,SSE,152,30.0,32.0,-999,-99.99,,,-99.99,,2013-02-18 20:03:00,
2013-02-18 14:13:00,60.0,-99.9,30.18,SE,138,28.0,32.0,-999,-99.99,,,-99.99,,2013-02-18 20:13:00,
2013-02-18 14:23:00,60.0,-99.9,30.17,SE,144,29.0,33.0,-999,-99.99,,,-99.99,,2013-02-18 20:23:00,
2013-02-18 14:34:00,60.0,-99.9,30.17,SE,137,28.0,32.0,-999,-99.99,,,-99.99,,2013-02-18 20:34:00,
2013-02-18 14:43:00,60.0,-99.9,30.16,SE,139,29.0,33.0,-999,-99.99,,,-99.99,,2013-02-18 20:43:00,
2013-02-18 14:53:00,60.0,-99.9,30.15,SE,141,27.0,32.0,-999,-99.99,,,-99.99,,2013-02-18 20:53:00,
2013-02-18 15:03:00,60.0,-99.9,30.14,SE,140,33.0,36.0,-999,-99.99,,,-99.99,,2013-02-18 21:03:00,
2013-02-18 15:12:00,60.0,-99.9,30.14,SE,134,33.0,36.0,-999,-99.99,,,-99.99,,2013-02-18 21:12:00,
2013-02-18 15:23:00,60.0,-99.9,30.14,SE,142,31.0,35.0,-999,-99.99,,,-99.99,,2013-02-18 21:23:00,
2013-02-18 15:33:00,60.0,-99.9,30.15,SSE,147,28.0,33.0,-999,-99.99,,,-99.99,,2013-02-18 21:33:00,
2013-02-18 15:43:00,60.0,-99.9,30.15,SSE,147,28.0,32.0,-999,-99.99,,,-99.99,,2013-02-18 21:43:00,
2013-02-18 15:53:00,60.0,-99.9,30.14,SE,141,30.0,33.0,-999,-99.99,,,-99.99,,2013-02-18 21:53:00,
2013-02-18 16:03:00,60.0,-99.9,30.13,SE,143,32.0,35.0,-999,-99.99,,,-99.99,,2013-02-18 22:03:00,
2013-02-18 16:13:00,60.0,-99.9,30.13,SE,143,30.0,34.0,-999,-99.99,,,-99.99,,2013-02-18 22:13:00,
2013-02-18 16:23:00,60.0,-99.9,30.14,SE,144,30.0,33.0,-999,-99.99,,,-99.99,,2013-02-18 22:23:00,
2013-02-18 16:33:00,60.0,-99.9,30.13,SE,143,30.0,33.0,-999,-99.99,,,-99.99,,2013-02-18 22:33:00,
2013-02-18 16:44:00,60.0,-99.9,30.13,SE,143,30.0,34.0,-999,-99.99,,,-99.99,,2013-02-18 22:44:00,
2013-02-18 16:54:00,60.0,-99.9,30.13,SE,144,31.0,35.0,-999,-99.99,,,-99.99,,2013-02-18 22:54:00,
2013-02-18 17:03:00,60.0,-99.9,30.12,SSE,149,29.0,33.0,-999,-99.99,,,-99.99,,2013-02-18 23:03:00,
2013-02-18 17:12:00,60.0,-99.9,30.12,SSE,152,28.0,33.0,-999,-99.99,,,-99.99,,2013-02-18 23:12:00,
2013-02-18 17:23:00,60.0,-99.9,30.13,SSE,148,29.0,34.0,-999,-99.99,,,-99.99,,2013-02-18 23:23:00,
2013-02-18 17:34:00,60.0,-99.9,30.13,SSE,147,29.0,32.0,-999,-99.99,,,-99.99,,2013-02-18 23:34:00,
2013-02-18 17:43:00,60.0,-99.9,30.13,SE,146,29.0,33.0,-999,-99.99,,,-99.99,,2013-02-18 23:43:00,
2013-02-18 17:54:00,60.0,-99.9,30.12,SSE,150,31.0,34.0,-999,-99.99,,,-99.99,,2013-02-18 23:54:00,
2013-02-18 18:03:00,60.0,-99.9,30.12,SSE,153,30.0,33.0,-999,-99.99,,,-99.99,,2013-02-19 00:03:00,
2013-02-18 18:13:00,60.0,-99.9,30.12,SSE,150,30.0,33.0,-999,-99.99,,,-99.99,,2013-02-19 00:13:00,
2013-02-18 18:23:00,60.0,-99.9,30.12,SE,146,30.0,34.0,-999,-99.99,,,-99.99,,2013-02-19 00:23:00,
2013-02-18 18:36:00,60.0,-99.9,30.12,SE,146,32.0,35.0,-999,-99.99,,,-99.99,,2013-02-19 00:36:00,
2013-02-18 18:44:00,60.0,-99.9,30.11,SE,146,33.0,35.0,-999,-99.99,,,-99.99,,2013-02-19 00:44:00,
2013-02-18 18:55:00,60.0,-99.9,30.11,SSE,149,31.0,34.0,-999,-99.99,,,-99.99,,2013-02-19 00:55:00,
2013-02-18 19:03:00,60.0,-99.9,30.12,North,-999,-999.0,-999.0,-999,-99.99,,,-99.99,,2013-02-19 01:03:00,
2013-02-18 19:15:00,60.0,-99.9,30.10,North,-999,-999.0,-999.0,-999,-99.99,,,-99.99,,2013-02-19 01:15:00,
2013-02-18 19:25:00,60.0,-99.9,30.11,SSE,150,32.0,35.0,-999,-99.99,,,-99.99,,2013-02-19 01:25:00,
2013-02-18 19:35:00,61.0,-99.9,30.11,SSE,155,34.0,36.0,-999,-99.99,,,-99.99,,2013-02-19 01:35:00,
2013-02-18 19:45:00,61.0,-99.9,30.10,SSE,155,33.0,36.0,-999,-99.99,,,-99.99,,2013-02-19 01:45:00,
2013-02-18 19:57:00,61.0,-99.9,30.11,SSE,156,30.0,34.0,-999,-99.99,,,-99.99,,2013-02-19 01:57:00,
2013-02-18 20:04:00,61.0,-99.9,30.11,SSE,156,32.0,35.0,-999,-99.99,,,-99.99,,2013-02-19 02:04:00,
2013-02-18 20:14:00,61.0,-99.9,30.11,SSE,156,32.0,36.0,-999,-99.99,,,-99.99,,2013-02-19 02:14:00,
2013-02-18 20:23:00,61.0,-99.9,30.11,SSE,157,31.0,34.0,-999,-99.99,,,-99.99,,2013-02-19 02:23:00,
2013-02-18 20:35:00,61.0,-99.9,30.10,SSE,158,33.0,36.0,-999,-99.99,,,-99.99,,2013-02-19 02:35:00,
2013-02-18 20:44:00,61.0,-99.9,30.11,SSE,157,31.0,36.0,-999,-99.99,,,-99.99,,2013-02-19 02:44:00,
2013-02-18 20:56:00,62.0,-99.9,30.10,SSE,154,32.0,35.0,-999,-99.99,,,-99.99,,2013-02-19 02:56:00,
2013-02-18 21:08:00,61.0,-99.9,30.10,SSE,157,30.0,34.0,-999,-99.99,,,-99.99,,2013-02-19 03:08:00,
2013-02-18 21:15:00,61.0,-99.9,30.10,SSE,154,31.0,36.0,-999,-99.99,,,-99.99,,2013-02-19 03:15:00,
2013-02-18 21:25:00,61.0,-99.9,30.10,SSE,156,30.0,33.0,-999,-99.99,,,-99.99,,2013-02-19 03:25:00,
2013-02-18 21:35:00,62.0,-99.9,30.10,SSE,157,31.0,35.0,-999,-99.99,,,-99.99,,2013-02-19 03:35:00,
2013-02-18 21:46:00,62.0,-99.9,30.09,SSE,157,31.0,34.0,-999,-99.99,,,-99.99,,2013-02-19 03:46:00,
2013-02-18 21:55:00,62.0,-99.9,30.08,SSE,158,29.0,33.0,-999,-99.99,,,-99.99,,2013-02-19 03:55:00,
2013-02-18 22:03:00,62.0,-99.9,30.08,SSE,158,32.0,36.0,-999,-99.99,,,-99.99,,2013-02-19 04:03:00,
2013-02-18 22:15:00,62.0,-99.9,30.07,SSE,159,30.0,35.0,-999,-99.99,,,-99.99,,2013-02-19 04:15:00,
2013-02-18 22:24:00,62.0,-99.9,30.07,SSE,162,31.0,34.0,-999,-99.99,,,-99.99,,2013-02-19 04:24:00,
2013-02-18 22:34:00,62.0,-99.9,30.07,SSE,164,30.0,34.0,-999,-99.99,,,-99.99,,2013-02-19 04:34:00,
2013-02-18 22:45:00,62.0,-99.9,30.07,SSE,165,30.0,36.0,-999,-99.99,,,-99.99,,2013-02-19 04:45:00,
2013-02-18 22:56:00,62.0,-99.9,30.06,SSE,164,30.0,36.0,-999,-99.99,,,-99.99,,2013-02-19 04:56:00,
2013-02-18 23:02:00,62.0,-99.9,30.06,SSE,167,30.0,37.0,-999,-99.99,,,-99.99,,2013-02-19 05:02:00,
2013-02-18 23:13:00,62.0,-99.9,30.06,SSE,168,32.0,37.0,-999,-99.99,,,-99.99,,2013-02-19 05:13:00,
2013-02-18 23:23:00,62.0,-99.9,30.04,SSE,168,31.0,36.0,-999,-99.99,,,-99.99,,2013-02-19 05:23:00,
2013-02-18 23:33:00,62.0,-99.9,30.04,SSE,166,29.0,36.0,-999,-99.99,,,-99.99,,2013-02-19 05:33:00,
2013-02-18 23:43:00,63.0,-99.9,30.03,SSE,168,36.0,43.0,-999,-99.99,,,-99.99,,2013-02-19 05:43:00,
2013-02-18 23:53:00,63.0,-99.9,30.02,South,169,33.0,38.0,-999,-99.99,,,-99.99,,2013-02-19 05:53:00,